DW5868 Weather Reports


time (UTC)temp
F
wind
direction
speed
knots
gust
knots
rain 1hr
in
rain 24hr
in
rain mn
in
humidity
%
barometer
mb
20220627210024 76 268 4.3 19.1 0.00 0.00 0.00 17 1011.5
20220627204523 77 265 2.6 12.2 0.00 0.00 0.00 18 1011.5
20220627203002 76 82 6.1 20.0 0.00 0.00 0.00 17 1011.6
20220627201505 75 338 6.1 14.8 0.00 0.00 0.00 18 1011.7
20220627200044 75 245 7.8 19.1 0.00 0.00 0.00 17 1011.9
20220627194543 76 238 2.6 13.9 0.00 0.00 0.00 18 1011.8
20220627193024 76 286 5.2 13.0 0.00 0.00 0.00 17 1011.8
20220627191525 76 285 7.0 16.5 0.00 0.00 0.00 18 1011.8
20220627190015 76 284 4.3 11.3 0.00 0.00 0.00 17 1011.8
20220627184506 77 236 2.6 11.3 0.00 0.00 0.00 18 1011.8
20220627183047 75 268 3.5 9.6 0.00 0.00 0.00 18 1011.7
20220627181546 76 287 2.6 6.1 0.00 0.00 0.00 18 1011.7
20220627180027 75 227 1.7 7.8 0.00 0.00 0.00 19 1011.8
20220627174525 75 240 0.9 8.7 0.00 0.00 0.00 19 1011.9
20220627173008 75 130 1.7 8.7 0.00 0.00 0.00 20 1012.1
20220627171507 75 257 3.5 10.4 0.00 0.00 0.00 19 1012.2
20220627170105 74 248 1.7 7.0 0.00 0.00 0.00 21 1012.2
20220627164546 73 287 5.2 11.3 0.00 0.00 0.00 18 1012.3
20220627163049 73 302 1.7 10.4 0.00 0.00 0.00 20 1012.4
20220627161527 73 304 3.5 7.8 0.00 0.00 0.00 20 1012.4
20220627160029 73 191 1.7 6.1 0.00 0.00 0.00 21 1012.2
20220627154506 71 306 3.5 8.7 0.00 0.00 0.00 21 1012.2
20220627153004 71 280 1.7 9.6 0.00 0.00 0.00 22 1012.1
20220627151547 70 312 0.9 4.3 0.00 0.00 0.00 23 1012.2
20220627150043 70 145 0.0 2.6 0.00 0.00 0.00 30 1012.1
20220627144526 66 84 2.6 4.3 0.00 0.00 0.00 35 1012.0
20220627143030 69 132 0.0 5.2 0.00 0.00 0.00 29 1012.1
20220627141503 68 265 0.0 3.5 0.00 0.00 0.00 27 1012.1
20220627140112 66 255 0.9 4.3 0.00 0.00 0.00 30 1012.1
20220627134538 64 265 0.9 6.1 0.00 0.00 0.00 29 1012.1
20220627133046 63 284 4.3 10.4 0.00 0.00 0.00 28 1012.0
20220627131521 61 263 0.9 12.2 0.00 0.00 0.00 32 1012.0
20220627130026 59 264 2.6 8.7 0.00 0.00 0.00 32 1012.0
20220627124520 55 290 2.6 7.8 0.00 0.00 0.00 38 1011.9
20220627123019 56 277 0.9 4.3 0.00 0.00 0.00 41 1011.8
20220627121518 56 276 0.0 3.5 0.00 0.00 0.00 39 1012.0
20220627120020 57 100 0.0 2.6 0.00 0.00 0.00 39 1011.8
20220627114517 58 227 1.7 5.2 0.00 0.00 0.00 35 1011.9
20220627113025 58 275 1.7 6.1 0.00 0.00 0.00 36 1011.9
20220627111558 56 268 0.9 3.5 0.00 0.00 0.00 41 1012.0
20220627110057 56 264 1.7 6.1 0.00 0.00 0.00 41 1012.1
20220627104537 56 259 0.0 1.7 0.00 0.00 0.00 43 1012.2
20220627103034 56 76 0.9 1.7 0.00 0.00 0.00 41 1012.3
20220627101520 57 322 0.0 1.7 0.00 0.00 0.00 41 1012.3
20220627100025 58 47 0.0 1.7 0.00 0.00 0.00 38 1012.4
20220627094514 59 84 0.0 4.3 0.00 0.00 0.00 36 1012.5
20220627093012 61 263 1.7 7.8 0.00 0.00 0.00 32 1012.5
20220627091509 62 256 0.9 8.7 0.00 0.00 0.00 31 1012.7
20220627090011 62 233 1.7 9.6 0.00 0.00 0.00 30 1012.7
20220627084506 62 241 2.6 8.7 0.00 0.00 0.00 31 1012.8
20220627083012 62 157 0.9 10.4 0.00 0.00 0.00 31 1012.8
20220627081602 62 254 1.7 7.8 0.00 0.00 0.00 31 1012.8
20220627080046 62 264 2.6 8.7 0.00 0.00 0.00 31 1012.8
20220627074527 62 257 4.3 12.2 0.00 0.00 0.00 31 1012.8
20220627073029 62 250 4.3 12.2 0.00 0.00 0.00 31 1013.0
20220627071506 62 287 2.6 8.7 0.00 0.00 0.00 32 1013.0
20220627070004 62 275 2.6 8.7 0.00 0.00 0.00 31 1013.2
20220627064553 62 276 3.5 10.4 0.00 0.00 0.00 31 1013.3
20220627063050 62 178 1.7 9.6 0.00 0.00 0.00 31 1013.6
20220627061550 62 272 5.2 11.3 0.00 0.00 0.00 31 1013.6
20220627060049 62 242 4.3 8.7 0.00 0.00 0.00 30 1013.7
20220627054549 63 279 5.2 13.9 0.00 0.00 0.00 30 1013.6
20220627053047 63 132 5.2 11.3 0.00 0.00 0.00 30 1013.6
20220627051551 63 252 5.2 10.4 0.00 0.00 0.00 29 1013.4
20220627050059 63 199 4.3 9.6 0.00 0.00 0.00 29 1013.4
20220627044530 64 275 4.3 11.3 0.00 0.00 0.00 29 1013.3
20220627043029 64 263 3.5 7.8 0.00 0.00 0.00 28 1013.3
20220627041511 64 285 3.5 9.6 0.00 0.00 0.00 28 1013.1
20220627040014 65 252 4.3 9.6 0.00 0.00 0.00 27 1013.0
20220627034553 65 175 4.3 10.4 0.00 0.00 0.00 27 1012.9
20220627033054 66 286 3.5 10.4 0.00 0.00 0.00 27 1012.8
20220627031534 66 253 3.5 7.0 0.00 0.00 0.00 26 1012.8
20220627030034 66 240 3.5 7.0 0.00 0.00 0.00 26 1012.8
20220627024525 67 227 2.6 7.0 0.00 0.00 0.00 25 1012.7
20220627023021 69 268 4.3 12.2 0.00 0.00 0.00 24 1012.6
20220627021526 71 176 3.5 10.4 0.00 0.00 0.00 22 1012.5
20220627020020 72 259 2.6 10.4 0.00 0.00 0.00 22 1012.5
20220627014518 73 311 2.6 8.7 0.00 0.00 0.00 22 1012.4
20220627013018 73 269 2.6 8.7 0.00 0.00 0.00 23 1012.3
20220627011518 74 211 2.6 11.3 0.00 0.00 0.00 23 1012.2
20220627010019 74 268 5.2 13.0 0.00 0.00 0.00 22 1012.1
20220627004606 74 281 3.5 11.3 0.00 0.00 0.00 22 1012.3
20220627003100 75 209 4.3 13.0 0.00 0.00 0.00 22 1012.4
20220627001547 75 233 3.5 9.6 0.00 0.00 0.00 21 1012.4
20220627000035 75 218 5.2 12.2 0.00 0.00 0.00 21 1012.7
20220626234517 75 260 3.5 10.4 0.00 0.00 0.00 21 1012.8
20220626233016 76 226 5.2 10.4 0.00 0.00 0.00 20 1012.9
20220626231558 76 226 4.3 13.9 0.00 0.00 0.00 20 1012.8
20220626230058 76 257 3.5 13.9 0.00 0.00 0.00 20 1012.9
20220626224538 77 205 2.6 12.2 0.00 0.01 0.00 21 1013.0
20220626223050 77 286 2.6 11.3 0.00 0.01 0.00 21 1013.1
20220626221520 78 286 2.6 11.3 0.00 0.01 0.00 21 1013.2
20220626220019 76 285 3.5 13.9 0.00 0.01 0.00 21 1013.3
20220626214503 78 223 4.3 10.4 0.00 0.01 0.00 20 1013.6
20220626213100 76 270 1.7 9.6 0.00 0.01 0.00 20 1013.5
20220626211543 75 19 4.3 12.2 0.00 0.01 0.00 21 1013.6